Weather Roundup
Issued by NWS Springfield, MO

Home | Current Version | Previous Version | Text Only | Print | Product List | Glossary On
Versions: 1 2 3 4 5 6 7 8 9 10 11 12 13 14 15 16 17 18 19 20 21 22 23 24 25 26 27 28 29 30 31 32 33 34 35 36 37 38 39 40 41 42 43 44 45 46 47 48 49 50
000
NZUS99 KSGF 200859
HRRSGF

HOURLY WEATHER
NATIONAL WEATHER SERVICE SPRINGFIELD MO
400 AM CDT MON OCT 20 2014

......SGF CWA......

CITY           SKY/WX    TMP DP  RH WIND       PRES   REMARKS
SPRINGFIELD    CLOUDY    54  50  86 S6        30.03F
JOPLIN         CLOUDY    58  53  84 SW9       30.04F
WEST PLAINS    CLOUDY    53  47  79 SW5       30.05F
ROLLA          CLEAR     50  45  83 SW9       30.00F
OSAGE BEACH    PTCLDY    48  45  87 CALM      30.01F

......SURROUNDING SGF CWA......

CITY           SKY/WX    TMP DP  RH WIND       PRES   REMARKS
CHANUTE        CLOUDY    58  54  86 S7        30.02F
PARSONS        CLOUDY    59  55  87 S6        30.04S
COFFEYVILLE    CLOUDY    58  55  90 S6        30.03F
EMPORIA        CLEAR     53  52  96 S3        30.01F
SILOAM SPRINGS CLOUDY    55  48  76 S5        30.07F
HARRISON AR    CLOUDY    53  51  93 CALM      30.05F
NEAR YELLVILLE MOCLDY    52  45  76 CALM      30.05F

......KANSAS AND MISSOURI......

CITY           SKY/WX    TMP DP  RH WIND       PRES   REMARKS
KANSAS CTY INT CLEAR     52  50  93 SW8       29.99F
DOWNTOWN KC    CLEAR     55  50  83 CALM      29.99F
COLUMBIA       CLEAR     50  48  93 SW6       29.99F
SEDALIA        PTCLDY    54  50  86 SW7       30.00F
ST JOSEPH      CLEAR     44  42  93 CALM      29.99F
ST LOUIS       MOCLDY    57  47  69 SW6       29.98F
SPIRIT OF STL  MOCLDY    56  47  71 SW7       29.98F
KIRKSVILLE     CLEAR     54  50  86 W8        29.95S
WICHITA        PTCLDY    58  54  86 SE5       30.00F
TOPEKA         FOG       49  48  97 CALM      30.01F VSB 1/2
OLATHE         CLEAR     54  52  93 W5        30.00F

......TENNESSEE......

CITY           SKY/WX    TMP DP  RH WIND       PRES   REMARKS
MEMPHIS        CLEAR     49  46  90 CALM      30.07S
NASHVILLE      PTCLDY    46  44  93 CALM      30.07S

......ARKANSAS.......

CITY           SKY/WX    TMP DP  RH WIND       PRES   REMARKS
FAYETTEVILLE   CLOUDY    50  49  96 NW5       30.08R
FT SMITH       PTCLDY    55  51  86 E3        30.05F
LITTLE ROCK    PTCLDY    51  46  83 CALM      30.07F

......OKLAHOMA.......

CITY           SKY/WX    TMP DP  RH WIND       PRES   REMARKS
TULSA          MOCLDY    57  55  93 E5        30.02F
PONCA CITY     PTCLDY    60  53  77 CALM      30.01F
MCALESTER      PTCLDY    56  50  80 SW3       30.05F
OKLAHOMA CITY  PTCLDY    56  51  84 S7        30.04S

......IOWA............

CITY           SKY/WX    TMP DP  RH WIND       PRES   REMARKS
DES MOINES     CLEAR     52  45  77 N8        29.94S
QUAD CITIES    CLEAR     48  43  82 W3        29.86S

......ILLINOIS........

CITY           SKY/WX    TMP DP  RH WIND       PRES   REMARKS
QUINCY         CLEAR     54  48  80 SW10      29.92F
CHICAGO        PTCLDY    50  43  77 SW12G18   29.82F



USA.gov is the U.S. government's official web portal to all federal, state and local government web resources and services.